Milan, NH

8:05 PM EST on February 19, 2017 (GMT -0500)
Berlin Municipal

Weather History for KBML - May, 2014

Change the Weather History Date:

Saturday, May 31, 2014

  Actual Average Record
Temperature  
Mean Temperature 56 °F -  
Max Temperature 70 °F 65 °F 90 °F (2013)
Min Temperature 41 °F 38 °F 27 °F (2004)
Degree Days  
Heating Degree Days 9    
Growing Degree Days 6 (Base 50)    
Moisture  
Dew Point 46 °F    
Average Humidity 86    
Maximum Humidity 100    
Minimum Humidity 34    
Precipitation  
Precipitation 0.03 in - - ()
Sea Level Pressure  
Sea Level Pressure 30.18 in    
Wind  
Wind Speed 1 mph (North)    
Max Wind Speed 10 mph    
Max Gust Speed 21 mph    
Visibility 6 miles    
Events Fog , Rain    
Averages and records for this station are not official NWS values.
T = Trace of Precipitation, MM = Missing Value Source: NWS Daily Summary

Daily Weather History Graph

Daily Weather History Graph

Search for Another Location

Airport or City:

Trip Planner

Search our weather history database for the weather conditions in past years. The results will help you decide how hot, cold, wet, or windy it might be!

Date:

Astronomy

May. 31, 2014 Rise Set
Actual Time 5:03 AM EDT 8:21 PM EDT
Civil Twilight 4:27 AM EDT 8:57 PM EDT
Nautical Twilight 3:41 AM EDT 9:44 PM EDT
Astronomical Twilight 2:43 AM EDT 10:42 PM EDT
Moon 7:41 AM EDT (5/31) 10:34 PM EDT (5/31)
Length of Visible Light 16h 30m
Length of Day
15h 18m
Waxing Crescent, 8% of the Moon is Illuminated
May 31
Waxing Crescent
Jun 5
First Quarter
Jun 13
Full
Jun 19
Last Quarter
Jun 27
New

Hourly Weather History & Observations

Time (EDT) Temp. Dew Point Humidity Pressure Visibility Wind Dir Wind Speed Gust Speed Precip Events Conditions
12:52 AM 46.0 °F 45.0 °F 96% 30.12 in 0.2 mi Calm Calm - N/A Fog Fog
1:07 AM 46.9 °F 45.0 °F 93% 30.10 in 0.2 mi Calm Calm - N/A Fog Fog
1:15 AM 46.0 °F 45.0 °F 96% 30.10 in 0.2 mi Calm Calm - N/A Fog Fog
1:25 AM 46.0 °F 45.0 °F 96% 30.10 in 0.2 mi Calm Calm - N/A Fog Fog
1:47 AM 46.4 °F 44.6 °F 93% 30.10 in 0.8 mi Calm Calm - N/A   Overcast
1:52 AM 46.0 °F 44.1 °F 93% 30.12 in 1.0 mi Calm Calm - N/A   Overcast
2:01 AM 46.0 °F 45.0 °F 96% 30.10 in 0.5 mi Calm Calm - N/A Fog Fog
2:10 AM 46.0 °F 45.0 °F 96% 30.11 in 0.2 mi Calm Calm - N/A Fog Fog
2:21 AM 46.0 °F 46.0 °F 100% 30.11 in 0.5 mi Calm Calm - N/A Fog Fog
2:41 AM 46.0 °F 46.0 °F 100% 30.11 in 1.5 mi Calm Calm - N/A   Overcast
2:46 AM 46.4 °F 46.4 °F 100% 30.11 in 3.0 mi Calm Calm - N/A   Overcast
2:52 AM 46.0 °F 46.0 °F 100% 30.12 in 4.0 mi Calm Calm - N/A   Overcast
3:30 AM 46.0 °F 46.0 °F 100% 30.11 in 4.0 mi Calm Calm - N/A   Overcast
3:39 AM 46.9 °F 46.0 °F 97% 30.11 in 2.0 mi Calm Calm - N/A   Overcast
3:52 AM 46.9 °F 46.0 °F 97% 30.13 in 3.0 mi Calm Calm - N/A   Overcast
4:34 AM 46.9 °F 45.0 °F 93% 30.13 in 10.0 mi Calm Calm - N/A   Overcast
5:01 AM 46.9 °F 46.0 °F 97% 30.13 in 9.0 mi Calm Calm - N/A   Overcast
5:09 AM 46.9 °F 46.0 °F 97% 30.13 in 5.0 mi Calm Calm - N/A   Overcast
5:35 AM 46.9 °F 46.0 °F 97% 30.15 in 5.0 mi Calm Calm - N/A   Overcast
5:41 AM 46.9 °F 46.0 °F 97% 30.15 in 2.5 mi Calm Calm - 0.01 in Rain Light Rain
5:43 AM 46.9 °F 46.0 °F 97% 30.15 in 1.5 mi Calm Calm - 0.02 in Rain Light Rain
5:52 AM 46.9 °F 46.0 °F 97% 30.17 in 1.5 mi Calm Calm - 0.03 in Rain Light Rain
5:56 AM 46.9 °F 46.0 °F 97% 30.15 in 2.0 mi Calm Calm - 0.00 in Rain Light Rain
6:07 AM 46.9 °F 46.0 °F 97% 30.16 in 6.0 mi Calm Calm - 0.00 in Rain Light Rain
6:16 AM 48.0 °F 46.0 °F 93% 30.16 in 9.0 mi Calm Calm - 0.00 in   Overcast
6:52 AM 48.0 °F 46.9 °F 96% 30.19 in 7.0 mi Calm Calm - 0.00 in Rain Light Rain
7:00 AM 48.9 °F 46.9 °F 93% 30.18 in 7.0 mi Calm Calm - 0.00 in   Overcast
7:11 AM 48.9 °F 46.9 °F 93% 30.18 in 8.0 mi Calm Calm - 0.00 in   Overcast
7:35 AM 50.0 °F 48.9 °F 96% 30.19 in 9.0 mi Calm Calm - 0.00 in Rain Light Rain
7:52 AM 50.0 °F 48.9 °F 96% 30.21 in 10.0 mi Calm Calm - 0.00 in   Overcast
8:10 AM 52.0 °F 48.9 °F 89% 30.20 in 10.0 mi Calm Calm - N/A   Overcast
8:21 AM 52.0 °F 50.0 °F 93% 30.20 in 8.0 mi Calm Calm - N/A   Overcast
8:52 AM 54.0 °F 51.1 °F 90% 30.22 in 10.0 mi North 5.8 mph - 0.00 in   Overcast
9:22 AM 54.0 °F 51.1 °F 90% 30.21 in 10.0 mi WNW 4.6 mph - N/A   Overcast
9:52 AM 57.0 °F 51.1 °F 81% 30.23 in 10.0 mi NNW 5.8 mph - N/A   Overcast
10:22 AM 59.0 °F 51.1 °F 75% 30.21 in 10.0 mi NNW 6.9 mph - N/A   Overcast
11:52 AM 62.1 °F 48.9 °F 62% 30.25 in 10.0 mi North 9.2 mph 18.4 mph N/A   Overcast
12:52 PM 64.0 °F 48.0 °F 56% 30.25 in 10.0 mi North 10.4 mph - N/A   Mostly Cloudy
1:52 PM 66.0 °F 45.0 °F 47% 30.25 in 10.0 mi ENE 9.2 mph 20.7 mph N/A   Scattered Clouds
2:52 PM 66.9 °F 39.0 °F 36% 30.25 in 10.0 mi NNE 8.1 mph 19.6 mph N/A   Clear
3:52 PM 69.1 °F 39.9 °F 35% 30.25 in 10.0 mi NNE 10.4 mph 17.3 mph N/A   Scattered Clouds
4:52 PM 66.9 °F 37.9 °F 34% 30.24 in 10.0 mi Variable 5.8 mph - N/A   Mostly Cloudy
5:52 PM 68.0 °F 39.0 °F 35% 30.24 in 10.0 mi North 6.9 mph - N/A   Scattered Clouds
7:52 PM 59.0 °F 46.0 °F 62% 30.27 in 10.0 mi SE 3.5 mph - N/A   Partly Cloudy
8:52 PM 52.0 °F 46.9 °F 83% 30.29 in 10.0 mi Calm Calm - N/A   Clear
9:52 PM 46.0 °F 43.0 °F 89% 30.32 in 10.0 mi Calm Calm - N/A   Clear
10:52 PM 43.0 °F 41.0 °F 93% 30.33 in 10.0 mi Calm Calm - N/A   Clear
11:52 PM 41.0 °F 39.0 °F 93% 30.34 in 10.0 mi Calm Calm - N/A   Clear